This is the latest recevied weather packets stored in our database for station/object BARLOW-WX. If no packets are shown the sender has not sent any weather packets the latest 10 day(s).
| Time | Temp. | Humidity | Pressure | Rain* | Wind** | Luminosity | Snow |
|---|---|---|---|---|---|---|---|
| 1787484679 | 13.89° C | 85% | 987.1 hPa | 0 mm | - | - | - |
| 1787483778 | 14.44° C | 85% | 987.2 hPa | 0 mm | - | - | - |
| 1787482879 | 14.44° C | 85% | 987.2 hPa | 0 mm | - | - | - |
| 1787481979 | 14.44° C | 84% | 986.8 hPa | 0 mm | - | - | - |
| 1787481080 | 14.44° C | 84% | 986.9 hPa | 0 mm | - | - | - |
| 1787480178 | 15° C | 84% | 986.9 hPa | 0 mm | - | - | - |
| 1787479279 | 15° C | 84% | 986.9 hPa | 0 mm | - | - | - |
| 1787478379 | 15° C | 81% | 986.1 hPa | 0 mm | - | - | - |
| 1787477482 | 15° C | 82% | 987 hPa | 0 mm | - | - | - |
| 1787476578 | 15° C | 82% | 987 hPa | 0 mm | - | - | - |
| 1787475679 | 15° C | 82% | 987 hPa | 0 mm | - | - | - |
| 1787474778 | 15.56° C | 82% | 986.3 hPa | 0 mm | - | - | - |
| 1787473878 | 15.56° C | 85% | 986.2 hPa | 0 mm | - | - | - |
| 1787472977 | 15.56° C | 85% | 986.2 hPa | 0 mm | - | - | - |
| 1787472079 | 15.56° C | 85% | 986.2 hPa | 0 mm | - | - | - |
| 1787471179 | 15.56° C | 86% | 986.1 hPa | 0 mm | - | - | - |
| 1787470279 | 15.56° C | 86% | 986.1 hPa | 0 mm | - | - | - |
| 1787469378 | 15.56° C | 86% | 986.1 hPa | 0 mm | - | - | - |
| 1787468479 | 15.56° C | 86% | 986.1 hPa | 0 mm | - | - | - |
| 1787467578 | 15.56° C | 82% | 986.5 hPa | 0 mm | - | - | - |
| 1787466680 | 15.56° C | 82% | 986.4 hPa | 0 mm | - | - | - |
| 1787465779 | 15.56° C | 82% | 986.4 hPa | 0 mm | - | - | - |
| 1787464880 | 15.56° C | 82% | 986.4 hPa | 0 mm | - | - | - |
| 1787463977 | 15.56° C | 77% | 987.1 hPa | 0 mm | - | - | - |
| 1787463078 | 16.11° C | 79% | 986.7 hPa | 0 mm | - | - | - |
* Rain latest hour (hover to see other rain measurements)
** Current wind speed in m/s (hover to see current wind gust speed)